Meteo Giornale » Osservazioni meteo Stati Uniti (USA) » Gustavus
ore: 07:56 - Osservazioni Meteo Gustavus
Lat. 58° 25' N Lon. 135° 44' W Alt. 11 metri s.l.m.
13 °C
Coperto
Temp. 24 Ore
11 °C
13 °C
Sud-Est
20.3 Km/h
Dew point 11 °C
Umidità 87 %
Visibilità 10 Km
Il sole sorge alle ore 06:00
Il sole tramonta alle ore 20:05
| Data e Ora | Cielo e Fenomeni | T °C | DP °C | Um. % | Pres. hPa | Vis. km | Vento km/h | |
|---|---|---|---|---|---|---|---|---|
| Oggi h: 07:56 | Coperto | 13 | 11 | 87 | 1003 | 10 | SE 20.3 | |
| Oggi h: 06:56 | Coperto | 13 | 12 | 93 | 1003 | 10 | E/SE 14.8 | |
| Oggi h: 05:56 | Coperto | 13 | 12 | 93 | 1004 | 10 | E/SE 14.8 | |
| Oggi h: 04:56 | Molto Nuvoloso | 12 | 12 | 100 | 1004 | 10 | SE 16.7 | |
| Oggi h: 04:14 | Coperto | 12 | 12 | 100 | 1005 | 10 | N 5.5 | |
| Oggi h: 03:56 | Coperto | 12 | 12 | 100 | 1005 | 10 | E 7.4 | |
| Oggi h: 03:40 | Pioggia | 12 | 12 | 100 | 1005 | 10 | E 9.3 | |
| Oggi h: 03:36 | Pioggia | 12 | 12 | 100 | 1005 | 10 | N 5.5 | |
| Oggi h: 02:56 | Pioggia Foschia | 12 | 12 | 100 | 1006 | 8 | N 0 | |
| Oggi h: 02:45 | Pioggia | 12 | 12 | 100 | 1006 | 10 | N 0 | |
| Oggi h: 02:27 | Pioggia Foschia | 12 | 12 | 100 | 1006 | 10 | N 0 | |
| Oggi h: 01:56 | Pioggia | 12 | 12 | 100 | 1007 | 10 | N 5.5 | |
| Oggi h: 00:56 | Pioggia | 12 | 12 | 100 | 1007 | 10 | N 5.5 | |
| Oggi h: 00:36 | Pioggia Foschia | 12 | 12 | 100 | 1007 | 6 | N 5.5 | |
| Oggi h: 00:32 | Pioggia Foschia | 12 | 12 | 100 | 1008 | 8 | N 5.5 | |
| Ieri h: 23:56 | Pioggia Foschia | 12 | 12 | 100 | 1008 | 5 | N 5.5 | |
| Ieri h: 23:43 | Pioggia Foschia | 12 | 12 | 100 | 1008 | 8 | N 0 | |
| Ieri h: 23:37 | Pioggia | 12 | 12 | 100 | 1008 | 11 | N 0 | |
| Ieri h: 23:30 | Coperto | 12 | 12 | 100 | 1008 | 10 | N 0 | |
| Ieri h: 22:56 | Coperto | 12 | 12 | 100 | 1008 | 10 | N 0 | |
| Ieri h: 22:48 | Pioggia | 12 | 12 | 100 | 1009 | 10 | N 0 | |
| Ieri h: 22:36 | Coperto | 12 | 12 | 100 | 1009 | 10 | N 0 | |
| Ieri h: 22:26 | Coperto | 12 | 12 | 100 | 1009 | 10 | N 0 | |
| Ieri h: 21:56 | Coperto | 12 | 12 | 100 | 1009 | 10 | N 0 | |
| Ieri h: 20:56 | Coperto | 12 | 12 | 100 | 1009 | 14 | N 0 | |
| Ieri h: 20:47 | Coperto | 12 | 12 | 100 | 1009 | 10 | N 5.5 | |
| Ieri h: 20:12 | Coperto | 13 | 12 | 93 | 1010 | 10 | N 5.5 | |
| Ieri h: 19:56 | Coperto | 13 | 12 | 93 | 1010 | 10 | N 0 | |
| Ieri h: 18:56 | Coperto | 13 | 12 | 93 | 1010 | 10 | N 0 | |
| Ieri h: 18:42 | Coperto | 13 | 12 | 93 | 1010 | 10 | N 0 | |
| Ieri h: 18:28 | Coperto | 13 | 12 | 93 | 1010 | 10 | N 0 | |
| Ieri h: 18:10 | Coperto | 13 | 12 | 93 | 1010 | 10 | N 0 | |
| Ieri h: 17:56 | Coperto | 13 | 12 | 93 | 1010 | 10 | N 5.5 | |
| Ieri h: 17:38 | Coperto | 13 | 12 | 93 | 1010 | 10 | N 5.5 | |
| Ieri h: 17:04 | Foschia | 12 | 12 | 100 | 1010 | 6 | N 0 | |
| Ieri h: 16:56 | Pioggia Foschia | 12 | 12 | 100 | 1010 | 2 | N 0 | |
| Ieri h: 16:52 | Pioggia Foschia | 12 | 12 | 100 | 1010 | 3 | N 0 | |
| Ieri h: 16:44 | Pioggia Foschia | 13 | 12 | 93 | 1010 | 5 | N 0 | |
| Ieri h: 16:34 | Pioggia Foschia | 13 | 12 | 93 | 1010 | 5 | N 0 | |
| Ieri h: 15:56 | Coperto | 13 | 12 | 93 | 1010 | 10 | N/NO 7.4 | |
| Ieri h: 15:26 | Coperto | 13 | 11 | 87 | 1010 | 10 | N/NO 7.4 | |
| Ieri h: 14:56 | Pioggia Foschia | 13 | 12 | 93 | 1010 | 10 | N 5.5 | |
| Ieri h: 13:56 | Foschia | 13 | 12 | 93 | 1010 | 10 | NO 9.3 | |
| Ieri h: 12:56 | Coperto | 12 | 12 | 100 | 1010 | 10 | NO 14.8 | |
| Ieri h: 12:40 | Foschia | 12 | 12 | 100 | 1010 | 10 | NO 14.8 | |
| Ieri h: 11:56 | Foschia | 12 | 11 | 93 | 1009 | 6 | NO 11.1 | |
| Ieri h: 11:33 | Coperto | 12 | 12 | 100 | 1009 | 10 | NO 9.3 | |
| Ieri h: 10:56 | Coperto | 12 | 12 | 100 | 1009 | 10 | N/NO 14.8 | |
| Ieri h: 10:43 | Foschia | 12 | 12 | 100 | 1009 | 8 | N/NO 11.1 | |
| Ieri h: 10:29 | Foschia | 12 | 11 | 93 | 1009 | 3 | N/NO 11.1 | |
| Ieri h: 10:13 | Foschia | 12 | 11 | 93 | 1009 | 2 | NO 13 | |
| Ieri h: 09:56 | Foschia | 12 | 11 | 93 | 1009 | 2 | NO 9.3 | |
| Ieri h: 09:13 | Foschia | 12 | 11 | 93 | 1009 | 2 | N/NO 9.3 | |
| Ieri h: 09:07 | Foschia | 11 | 11 | 100 | 1009 | 5 | N/NO 7.4 | |
| Ieri h: 08:56 | Pioggia Foschia | 11 | 11 | 100 | 1008 | 3 | NO 7.4 | |
| Ieri h: 08:41 | Pioggia Foschia | 11 | 11 | 100 | 1008 | 3 | N/NO 11.1 | |



